Time,TemperatureF,DewpointF,PressureIn,WindDirection,WindDirectionDegrees,WindSpeedMPH,WindSpeedGustMPH,Humidity,HourlyPrecipIn,Conditions,Clouds,dailyrainin,SoftwareType,DateUTC
2013-12-06 00:12:00,19.0,16.0,28.78,NNE,15,7.0,9.0,89,0.00,,,0.00,,2013-12-06 06:12:00,
2013-12-06 00:22:00,19.0,16.0,28.77,NNE,26,6.0,9.0,89,0.00,,,0.00,,2013-12-06 06:22:00,
2013-12-06 00:42:00,19.0,16.0,28.77,North,354,7.0,9.0,89,0.00,,,0.00,,2013-12-06 06:42:00,
2013-12-06 00:52:00,19.0,16.0,28.76,NNE,31,6.0,8.0,89,0.00,,,0.00,,2013-12-06 06:52:00,
2013-12-06 01:11:00,19.0,16.0,28.77,NNW,342,6.0,8.0,88,0.00,,,0.00,,2013-12-06 07:11:00,
2013-12-06 01:22:00,19.0,16.0,28.77,NNE,12,6.0,8.0,88,0.00,,,0.00,,2013-12-06 07:22:00,
2013-12-06 01:42:00,19.0,16.0,28.77,NNE,22,5.0,8.0,88,0.00,,,0.00,,2013-12-06 07:42:00,
2013-12-06 01:52:00,19.0,16.0,28.77,North,356,6.0,9.0,88,0.00,,,0.00,,2013-12-06 07:52:00,
2013-12-06 02:12:00,18.0,15.0,28.77,NNE,22,7.0,7.0,88,0.00,,,0.00,,2013-12-06 08:12:00,
2013-12-06 02:22:00,18.0,15.0,28.76,NE,35,5.0,7.0,88,0.00,,,0.00,,2013-12-06 08:22:00,
2013-12-06 02:42:00,18.0,15.0,28.76,NE,42,5.0,7.0,89,0.00,,,0.00,,2013-12-06 08:42:00,
2013-12-06 02:52:00,18.0,15.0,28.76,NE,41,7.0,9.0,89,0.00,,,0.00,,2013-12-06 08:52:00,
2013-12-06 03:12:00,18.0,15.0,28.76,NNE,13,6.0,7.0,88,0.00,,,0.00,,2013-12-06 09:12:00,
2013-12-06 03:22:00,18.0,15.0,28.77,North,353,6.0,7.0,88,0.00,,,0.00,,2013-12-06 09:22:00,
2013-12-06 03:43:00,18.0,15.0,28.78,NE,44,7.0,8.0,88,0.00,,,0.00,,2013-12-06 09:43:00,
2013-12-06 03:53:00,18.0,15.0,28.78,NNE,30,6.0,8.0,88,0.00,,,0.00,,2013-12-06 09:53:00,
2013-12-06 04:13:00,18.0,15.0,28.76,NNE,22,5.0,9.0,89,0.00,,,0.00,,2013-12-06 10:13:00,
2013-12-06 04:23:00,18.0,15.0,28.77,NNE,22,7.0,8.0,89,0.00,,,0.00,,2013-12-06 10:23:00,
2013-12-06 04:43:00,18.0,15.0,28.77,NNE,15,6.0,9.0,89,0.00,,,0.00,,2013-12-06 10:43:00,
2013-12-06 04:52:00,18.0,15.0,28.76,NNE,18,5.0,8.0,89,0.00,,,0.00,,2013-12-06 10:52:00,
2013-12-06 05:12:00,18.0,15.0,28.76,NNW,344,7.0,10.0,88,0.00,,,0.00,,2013-12-06 11:12:00,
2013-12-06 05:22:00,18.0,15.0,28.76,NNE,22,6.0,9.0,88,0.00,,,0.00,,2013-12-06 11:22:00,
2013-12-06 05:42:00,18.0,15.0,28.77,North,355,6.0,8.0,88,0.00,,,0.00,,2013-12-06 11:42:00,
2013-12-06 05:53:00,18.0,15.0,28.78,North,0,5.0,8.0,88,0.00,,,0.00,,2013-12-06 11:53:00,
2013-12-06 06:21:00,17.0,14.0,28.79,NNE,12,5.0,9.0,88,0.00,,,0.00,,2013-12-06 12:21:00,
2013-12-06 06:42:00,17.0,14.0,28.78,NE,38,5.0,6.0,89,0.00,,,0.00,,2013-12-06 12:42:00,
2013-12-06 06:52:00,17.0,14.0,28.79,North,350,5.0,6.0,89,0.00,,,0.00,,2013-12-06 12:52:00,
2013-12-06 07:11:00,17.0,14.0,28.80,NNE,22,6.0,8.0,89,0.00,,,0.00,,2013-12-06 13:11:00,
2013-12-06 07:22:00,17.0,14.0,28.81,NE,37,6.0,8.0,89,0.00,,,0.00,,2013-12-06 13:22:00,
2013-12-06 07:42:00,17.0,14.0,28.79,NNE,13,5.0,7.0,89,0.00,,,0.00,,2013-12-06 13:42:00,
2013-12-06 07:52:00,17.0,14.0,28.79,NNE,31,6.0,8.0,89,0.00,,,0.00,,2013-12-06 13:52:00,
2013-12-06 08:11:00,17.0,14.0,28.81,NNE,30,6.0,8.0,89,0.00,,,0.00,,2013-12-06 14:11:00,
2013-12-06 08:22:00,17.0,14.0,28.82,NNE,15,6.0,7.0,89,0.00,,,0.00,,2013-12-06 14:22:00,
2013-12-06 08:42:00,17.0,14.0,28.84,East,83,6.0,8.0,89,0.00,,,0.00,,2013-12-06 14:42:00,
2013-12-06 08:52:00,17.0,14.0,28.82,NE,35,5.0,7.0,89,0.00,,,0.00,,2013-12-06 14:52:00,
2013-12-06 09:12:00,17.0,14.0,28.82,NNE,22,8.0,10.0,89,0.00,,,0.00,,2013-12-06 15:12:00,
2013-12-06 09:22:00,17.0,14.0,28.83,NNW,339,6.0,8.0,89,0.00,,,0.00,,2013-12-06 15:22:00,
2013-12-06 09:44:00,17.0,14.0,28.83,NNE,31,3.0,7.0,89,0.00,,,0.00,,2013-12-06 15:44:00,
2013-12-06 09:54:00,17.0,14.0,28.83,North,11,5.0,6.0,89,0.00,,,0.00,,2013-12-06 15:54:00,
2013-12-06 10:13:00,17.0,14.0,28.86,NNW,344,6.0,8.0,89,0.00,,,0.00,,2013-12-06 16:13:00,
2013-12-06 10:24:00,17.0,14.0,28.86,North,10,5.0,7.0,89,0.00,,,0.00,,2013-12-06 16:24:00,
2013-12-06 10:43:00,17.0,14.0,28.86,North,0,6.0,7.0,88,0.00,,,0.00,,2013-12-06 16:43:00,
2013-12-06 10:53:00,17.0,14.0,28.88,NNE,22,4.0,6.0,88,0.00,,,0.00,,2013-12-06 16:53:00,
2013-12-06 11:12:00,18.0,15.0,28.88,NNE,22,4.0,6.0,89,0.00,,,0.00,,2013-12-06 17:12:00,
2013-12-06 11:22:00,17.0,14.0,28.88,NNE,22,7.0,9.0,89,0.00,,,0.00,,2013-12-06 17:22:00,
2013-12-06 11:43:00,18.0,15.0,28.87,North,4,5.0,9.0,88,0.00,,,0.00,,2013-12-06 17:43:00,
2013-12-06 11:52:00,18.0,15.0,28.90,NNE,22,6.0,7.0,88,0.00,,,0.00,,2013-12-06 17:52:00,
2013-12-06 12:12:00,18.0,15.0,28.89,NNE,19,6.0,7.0,88,0.00,,,0.00,,2013-12-06 18:12:00,
2013-12-06 12:22:00,18.0,15.0,28.89,NNE,31,5.0,7.0,88,0.00,,,0.00,,2013-12-06 18:22:00,
2013-12-06 12:42:00,18.0,15.0,28.87,NNE,23,6.0,9.0,87,0.00,,,0.00,,2013-12-06 18:42:00,
2013-12-06 12:52:00,18.0,15.0,28.87,NNE,21,9.0,9.0,87,0.00,,,0.00,,2013-12-06 18:52:00,
2013-12-06 13:22:00,18.0,14.0,28.87,NNE,22,8.0,10.0,85,0.00,,,0.00,,2013-12-06 19:22:00,
2013-12-06 13:42:00,19.0,15.0,28.87,North,356,7.0,10.0,84,0.00,,,0.00,,2013-12-06 19:42:00,
2013-12-06 13:52:00,19.0,15.0,28.86,NNE,22,6.0,7.0,84,0.00,,,0.00,,2013-12-06 19:52:00,
2013-12-06 14:11:00,19.0,15.0,28.87,NNE,15,7.0,8.0,84,0.00,,,0.00,,2013-12-06 20:11:00,
2013-12-06 14:22:00,19.0,15.0,28.87,North,357,8.0,10.0,83,0.00,,,0.00,,2013-12-06 20:22:00,
2013-12-06 14:42:00,19.0,15.0,28.87,North,11,5.0,8.0,83,0.00,,,0.00,,2013-12-06 20:42:00,
2013-12-06 14:52:00,19.0,15.0,28.87,NNE,13,7.0,10.0,84,0.00,,,0.00,,2013-12-06 20:52:00,
2013-12-06 15:11:00,19.0,15.0,28.88,NNE,22,8.0,9.0,84,0.00,,,0.00,,2013-12-06 21:11:00,
2013-12-06 15:22:00,19.0,15.0,28.88,North,7,6.0,10.0,83,0.00,,,0.00,,2013-12-06 21:22:00,
2013-12-06 15:43:00,19.0,15.0,28.89,NE,37,7.0,8.0,84,0.00,,,0.00,,2013-12-06 21:43:00,
2013-12-06 15:53:00,19.0,15.0,28.89,NNE,24,6.0,9.0,85,0.00,,,0.00,,2013-12-06 21:53:00,
2013-12-06 16:13:00,18.0,14.0,28.90,NNE,27,7.0,9.0,84,0.00,,,0.00,,2013-12-06 22:13:00,
2013-12-06 16:23:00,18.0,14.0,28.90,North,11,6.0,9.0,84,0.00,,,0.00,,2013-12-06 22:23:00,
2013-12-06 16:42:00,18.0,14.0,28.91,NNE,22,5.0,10.0,84,0.00,,,0.00,,2013-12-06 22:42:00,
2013-12-06 16:53:00,18.0,14.0,28.92,NNE,22,6.0,9.0,83,0.00,,,0.00,,2013-12-06 22:53:00,
2013-12-06 17:12:00,18.0,13.0,28.92,NE,38,6.0,9.0,82,0.00,,,0.00,,2013-12-06 23:12:00,
2013-12-06 17:22:00,18.0,13.0,28.94,NNE,22,9.0,12.0,80,0.00,,,0.00,,2013-12-06 23:22:00,
2013-12-06 17:42:00,17.0,11.0,28.94,NNE,30,8.0,10.0,78,0.00,,,0.00,,2013-12-06 23:42:00,
2013-12-06 17:52:00,17.0,11.0,28.95,NNE,22,8.0,10.0,78,0.00,,,0.00,,2013-12-06 23:52:00,
2013-12-06 18:11:00,17.0,11.0,28.95,NNE,12,8.0,10.0,77,0.00,,,0.00,,2013-12-07 00:11:00,
2013-12-06 18:22:00,17.0,11.0,28.96,NE,38,6.0,9.0,77,0.00,,,0.00,,2013-12-07 00:22:00,
2013-12-06 18:42:00,17.0,10.0,28.97,NE,34,7.0,9.0,75,0.00,,,0.00,,2013-12-07 00:42:00,
2013-12-06 18:52:00,17.0,11.0,28.97,NNE,30,6.0,7.0,76,0.00,,,0.00,,2013-12-07 00:52:00,
2013-12-06 19:11:00,17.0,11.0,28.98,North,9,5.0,7.0,77,0.00,,,0.00,,2013-12-07 01:11:00,
2013-12-06 19:22:00,17.0,10.0,28.99,NE,42,7.0,10.0,74,0.00,,,0.00,,2013-12-07 01:22:00,
2013-12-06 19:42:00,17.0,10.0,28.99,NNE,22,5.0,7.0,73,0.00,,,0.00,,2013-12-07 01:42:00,
2013-12-06 19:52:00,17.0,10.0,28.99,NE,34,6.0,8.0,72,0.00,,,0.00,,2013-12-07 01:52:00,
2013-12-06 20:11:00,16.0,8.0,29.00,NNE,14,7.0,9.0,71,0.00,,,0.00,,2013-12-07 02:11:00,
2013-12-06 20:21:00,16.0,8.0,29.01,NNE,13,5.0,7.0,71,0.00,,,0.00,,2013-12-07 02:21:00,
2013-12-06 20:42:00,16.0,9.0,29.00,North,10,3.0,6.0,72,0.00,,,0.00,,2013-12-07 02:42:00,
2013-12-06 20:52:00,16.0,9.0,29.01,NNE,22,4.0,7.0,72,0.00,,,0.00,,2013-12-07 02:52:00,
2013-12-06 21:11:00,16.0,8.0,29.01,NNE,20,6.0,7.0,71,0.00,,,0.00,,2013-12-07 03:11:00,
2013-12-06 21:22:00,16.0,9.0,29.02,NNE,22,4.0,6.0,72,0.00,,,0.00,,2013-12-07 03:22:00,
2013-12-06 21:43:00,16.0,8.0,29.02,NNE,33,5.0,7.0,71,0.00,,,0.00,,2013-12-07 03:43:00,
2013-12-06 21:53:00,16.0,9.0,29.03,NNE,24,5.0,8.0,72,0.00,,,0.00,,2013-12-07 03:53:00,
2013-12-06 22:12:00,16.0,9.0,29.03,NNE,12,5.0,6.0,72,0.00,,,0.00,,2013-12-07 04:12:00,
2013-12-06 22:23:00,16.0,9.0,29.04,NE,35,5.0,6.0,72,0.00,,,0.00,,2013-12-07 04:23:00,
2013-12-06 22:43:00,16.0,8.0,29.04,NNE,19,6.0,7.0,71,0.00,,,0.00,,2013-12-07 04:43:00,
2013-12-06 22:53:00,16.0,9.0,29.05,NNE,22,5.0,6.0,72,0.00,,,0.00,,2013-12-07 04:53:00,
2013-12-06 23:12:00,15.0,8.0,29.05,NNW,342,3.0,5.0,72,0.00,,,0.00,,2013-12-07 05:12:00,
2013-12-06 23:22:00,15.0,8.0,29.05,NNE,22,3.0,6.0,73,0.00,,,0.00,,2013-12-07 05:22:00,
2013-12-06 23:43:00,14.0,7.0,29.05,NNE,26,3.0,5.0,73,0.00,,,0.00,,2013-12-07 05:43:00,
2013-12-06 23:53:00,13.0,6.0,29.05,North,7,3.0,3.0,74,0.00,,,0.00,,2013-12-07 05:53:00,